Temp
43 35 30 36 38 39 37 34 32 38 45 41 40 41 45 49 51 51 53 55 56 60 67 67 67 68 68 67 66 67 67 67 68 66 61 58 54 53 51 53 58 58 58 55
35 30 40 44 42 39 37 33 32 38 44 42 39 39 45 48 49 51 52 54 56 58 61 67 66 66 66 65 64 65 66 67 68 67 65 57 56 50 49 51 51 53 51 52
30 37 44 42 38 37 36 33 33 33 40 41 37 32 37 44 47 51 53 55 57 57 57 61 62 64 65 65 64 64 65 66 68 66 60 54 52 50 48 48 48 46 47 47
35 44 41 38 36 38 30 40 39 36 32 20 36 21 34 41 43 47 50 52 55 56 58 60 62 61 62 65 65 64 64 66 67 63 58 56 55 50 47 47 45 43 44 46
33 36 36 35 37 41 34 41 38 36 31 29 31 23 29 40 39 43 46 49 53 56 58 58 61 62 61 63 65 63 63 65 66 61 58 58 54 49 46 43 41 40 41 43
36 43 40 39 42 42 43 37 36 34 30 16 28 25 26 33 40 43 48 49 52 52 56 61 59 62 62 62 63 63 62 63 65 60 58 59 51 46 42 41 38 38 39 40
31 35 41 44 36 40 37 26 13 11 18 13 33 28 32 41 43 41 41 43 46 50 50 51 55 58 60 59 59 60 61 61 62 56 57 56 49 47 43 40 38 37 37 38
18 17 36 41 36 31 31 27 19 12 11 18 32 20 32 41 44 45 46 45 46 45 47 48 49 50 57 58 59 60 60 60 57 55 55 51 48 46 43 40 39 38 37 37
19 23 38 40 41 39 29 27 33 27 17 22 23 31 40 42 41 44 43 43 43 43 44 46 48 48 53 58 59 60 60 60 56 55 49 47 45 43 40 40 39 37 37 37
29 19 33 38 40 39 35 38 26 24 18 12 18 23 29 35 37 40 39 39 41 43 43 43 45 46 49 58 59 60 60 54 50 48 46 44 43 40 39 38 36 36 35 35
31 26 28 32 31 31 29 28 30 29 28 21 20 24 38 37 38 35 37 40 40 40 41 43 44 45 50 55 56 51 48 46 44 43 43 40 38 38 38 36 35 34 34 34
32 28 21 25 37 40 38 31 31 23 23 26 26 26 40 41 39 38 37 39 39 39 40 42 43 46 47 46 46 45 44 43 41 41 40 37 37 36 34 33 33 34 33 33
30 18 12 21 30 38 32 34 33 29 28 25 20 24 43 41 37 37 36 37 36 36 39 40 40 42 42 43 42 41 40 39 38 37 36 34 33 33 33 32 32 32 32 31
36 26 18 16 24 29 24 29 31 28 24 23 25 25 32 33 32 34 34 34 35 36 37 37 37 37 37 38 38 36 36 36 36 35 34 33 33 34 33 32 32 32 31 30
33 13 19 24 27 28 26 27 29 29 29 23 26 25 29 31 31 32 32 33 34 34 34 34 34 34 34 34 33 33 33 33 34 33 33 32 33 32 32 31 30 30 29 29
31 17 25 22 29 30 27 31 33 31 29 30 30 28 36 33 34 32 31 32 31 32 32 33 32 33 33 34 33 33 32 33 34 33 32 32 32 30 29 29 29 30 31 31
27 25 19 12 26 27 21 30 32 30 32 30 25 29 32 31 32 30 30 31 30 30 31 32 32 32 33 32 33 32 32 33 33 33 31 30 30 28 29 31 32 31 31 31
24 24 19 13 19 10 31 36 37 32 32 33 32 31 32 31 33 32 32 30 30 30 31 32 32 32 32 33 33 33 33 33 31 30 29 29 28 30 31 31 30 31 31 30
31 25 13 11 6 23 30 33 31 28 30 35 33 34 33 34 39 32 32 32 31 31 31 31 32 32 32 33 33 32 31 31 30 28 28 28 31 30 30 30 29 29 29 29
29 28 19 8 5 4 29 35 37 34 26 36 35 33 32 34 28 28 32 32 32 32 32 31 32 32 32 32 32 31 29 28 27 27 28 31 31 30 29 29 28 29 30 30
14 20 18 6 10 18 32 35 37 23 29 35 35 34 32 30 31 32 32 32 32 32 31 31 31 29 29 30 30 28 27 26 29 30 30 30 30 29 29 28 28 28 28 27
16 13 11 9 15 12 33 35 31 33 34 33 33 33 31 34 33 32 31 30 30 30 30 30 29 28 29 30 31 28 27 29 29 29 28 27 27 29 28 26 26 26 26 24
15 24 20 23 23 33 34 34 34 33 32 31 30 31 32 33 32 31 30 29 29 29 30 30 29 28 28 30 31 27 27 28 27 26 25 25 26 27 27 25 24 23 23 22
25 28 25 27 29 30 32 32 32 31 31 31 31 31 31 31 32 30 30 30 29 29 29 29 28 27 26 27 28 28 28 28 27 25 24 24 24 24 24 25 24 22 20 20
24 26 18 21 29 31 33 31 32 31 30 30 31 30 28 31 31 30 29 28 28 27 27 28 28 27 25 26 26 27 28 28 25 24 24 23 22 22 21 21 21 21 20 21
23 25 26 23 30 31 31 30 31 30 29 28 28 28 28 29 30 29 27 27 27 26 27 26 25 25 25 26 25 26 27 27 25 23 22 21 20 19 20 21 22 30 29 29
MSLP
1018.76 1019.29 1019.51 1019.32 1019.15 1019.14 1018.92 1018.38 1017.70 1016.72 1015.78 1014.80 1013.73 1011.75 1011.21 1010.68 1009.51 1008.94 1008.29 1007.72 1007.19 1006.67 1006.13 1005.72 1005.46 1006.01 1006.82 1007.78 1008.60 1009.20 1009.88 1010.74 1011.44 1012.25 1013.23 1014.13 1015.06 1015.91 1016.23 1016.44 1016.58 1017.06 1017.50 1018.20
1019.93 1019.63 1019.21 1018.95 1018.86 1018.88 1018.67 1018.14 1017.42 1016.49 1015.69 1015.12 1013.95 1011.54 1010.70 1009.94 1008.84 1008.30 1007.73 1007.27 1006.80 1006.30 1005.73 1005.46 1005.46 1005.26 1006.01 1006.89 1007.76 1008.78 1009.35 1010.13 1010.92 1011.67 1012.76 1014.00 1015.09 1016.11 1016.89 1017.39 1017.41 1017.83 1018.06 1018.37
1020.81 1019.67 1019.09 1018.96 1018.80 1018.74 1018.35 1018.15 1017.57 1016.95 1015.97 1015.26 1014.13 1011.08 1009.98 1009.14 1008.41 1007.47 1006.94 1006.44 1006.13 1005.90 1005.60 1005.39 1005.50 1005.67 1005.37 1006.02 1007.07 1007.81 1008.57 1009.45 1010.38 1011.44 1012.89 1014.25 1015.66 1016.51 1017.47 1017.78 1018.26 1018.99 1018.85 1019.24
1020.76 1019.55 1019.32 1019.09 1018.92 1018.69 1018.36 1017.76 1017.68 1017.26 1017.00 1016.66 1015.59 1012.74 1010.84 1009.19 1008.08 1007.34 1006.69 1005.79 1005.56 1005.50 1005.31 1005.17 1005.21 1005.61 1005.63 1005.67 1006.10 1007.21 1008.05 1008.91 1009.86 1011.05 1012.32 1013.33 1014.43 1015.93 1017.07 1017.58 1018.61 1019.51 1019.56 1019.88
1021.04 1020.05 1019.52 1019.16 1018.76 1018.63 1018.41 1017.94 1017.82 1017.46 1017.21 1017.32 1014.97 1015.21 1011.56 1009.53 1008.13 1007.19 1006.54 1005.88 1005.35 1005.13 1004.83 1004.56 1004.79 1004.78 1005.06 1005.63 1005.98 1006.63 1007.69 1008.38 1009.17 1010.43 1011.60 1012.71 1014.06 1015.50 1016.74 1018.06 1019.06 1019.69 1020.24 1020.53
1021.38 1020.26 1019.69 1018.94 1018.57 1018.45 1018.34 1018.23 1017.50 1016.88 1017.59 1017.46 1015.24 1014.83 1011.69 1010.06 1008.58 1007.94 1007.08 1006.56 1005.98 1005.77 1004.72 1003.76 1003.89 1004.22 1004.60 1005.04 1005.58 1006.24 1007.33 1008.14 1008.79 1009.93 1011.19 1012.04 1013.62 1015.31 1016.75 1018.20 1019.35 1020.16 1020.63 1021.06
1022.34 1020.85 1019.56 1019.22 1018.83 1018.41 1018.71 1018.93 1019.03 1018.59 1018.53 1017.32 1015.27 1014.63 1011.15 1009.84 1009.57 1009.18 1008.59 1007.91 1007.44 1006.79 1005.91 1004.95 1004.17 1003.81 1004.20 1004.67 1005.04 1005.67 1006.56 1007.63 1008.45 1009.58 1010.86 1011.89 1013.25 1014.57 1016.11 1017.77 1018.95 1020.09 1020.97 1021.53
1024.61 1022.18 1020.60 1019.91 1019.94 1019.54 1019.31 1019.87 1020.00 1019.62 1018.80 1017.09 1015.22 1013.57 1010.83 1009.97 1009.41 1009.25 1008.52 1008.23 1007.64 1006.92 1006.72 1006.10 1005.81 1005.37 1004.12 1003.75 1004.39 1004.88 1005.96 1006.88 1008.13 1009.41 1010.67 1012.03 1013.23 1014.52 1016.32 1017.60 1018.88 1020.06 1021.01 1021.71
1025.63 1023.24 1021.17 1020.36 1019.76 1019.83 1019.32 1019.71 1019.68 1018.61 1017.87 1017.32 1014.63 1012.18 1010.23 1009.45 1009.11 1008.42 1008.79 1008.78 1008.32 1007.72 1007.06 1006.55 1005.69 1005.50 1004.85 1003.77 1003.48 1003.83 1005.27 1006.31 1007.63 1009.19 1010.80 1012.09 1013.43 1014.60 1016.30 1017.96 1019.26 1020.12 1021.25 1022.10
1026.12 1024.62 1021.83 1020.58 1019.72 1019.16 1019.27 1019.55 1019.18 1018.82 1017.94 1016.72 1014.18 1012.38 1010.72 1010.43 1010.03 1009.73 1009.32 1008.92 1008.31 1007.78 1007.18 1006.46 1006.03 1004.99 1004.18 1003.32 1002.87 1003.66 1004.50 1005.86 1007.88 1009.12 1010.67 1012.06 1013.62 1015.01 1016.51 1018.20 1019.42 1020.38 1021.33 1022.43
1026.25 1025.98 1022.86 1021.84 1020.42 1019.77 1019.59 1019.51 1019.73 1019.54 1018.32 1016.78 1014.64 1011.97 1011.22 1011.15 1010.80 1010.32 1009.91 1009.42 1008.62 1007.97 1007.10 1006.15 1005.37 1004.78 1003.63 1002.71 1002.95 1004.26 1005.60 1006.67 1008.56 1009.73 1010.97 1012.34 1013.90 1015.46 1016.79 1018.69 1020.02 1020.71 1021.74 1022.26
1026.78 1026.31 1024.82 1022.61 1020.28 1019.52 1019.57 1019.74 1020.01 1019.58 1018.26 1017.24 1015.55 1012.08 1010.66 1011.01 1011.31 1011.07 1010.33 1009.56 1008.85 1008.24 1007.45 1006.58 1005.74 1004.08 1003.50 1003.45 1003.78 1004.88 1006.35 1007.51 1008.94 1010.47 1011.50 1013.28 1013.99 1015.86 1017.60 1019.30 1020.39 1021.77 1022.47 1022.86
1026.91 1026.87 1025.87 1023.10 1021.07 1019.96 1020.08 1020.03 1020.15 1019.87 1018.60 1017.00 1016.31 1012.94 1011.42 1011.74 1011.39 1010.94 1010.29 1009.35 1008.84 1008.19 1007.37 1006.76 1006.10 1005.45 1004.90 1005.11 1005.38 1006.36 1007.69 1008.98 1010.05 1011.04 1012.47 1014.00 1015.05 1016.20 1018.03 1020.02 1021.00 1022.25 1022.88 1023.75
1027.08 1027.20 1027.12 1025.91 1023.55 1022.65 1021.35 1020.12 1019.56 1019.46 1018.33 1017.40 1016.35 1014.96 1012.80 1012.60 1012.09 1010.96 1010.18 1009.56 1008.84 1008.23 1007.82 1007.40 1006.91 1006.75 1006.57 1006.77 1007.16 1008.06 1009.35 1010.51 1011.57 1012.66 1013.82 1014.30 1016.05 1017.69 1018.39 1020.29 1021.56 1022.71 1023.57 1024.68
1027.55 1027.54 1026.90 1025.58 1024.22 1023.08 1021.79 1020.57 1019.36 1018.69 1018.26 1018.10 1017.01 1015.94 1014.57 1013.81 1013.12 1012.19 1011.20 1010.00 1009.23 1008.83 1008.52 1008.32 1008.04 1008.07 1008.24 1008.28 1008.82 1009.74 1010.96 1011.99 1013.19 1013.78 1015.24 1016.61 1017.24 1018.10 1019.51 1021.03 1022.39 1023.62 1024.36 1025.17
1028.13 1027.81 1026.91 1025.05 1023.19 1022.45 1021.23 1019.92 1019.19 1018.63 1018.26 1017.75 1017.16 1016.01 1015.08 1013.97 1013.54 1012.61 1011.65 1010.75 1010.13 1009.71 1009.49 1009.37 1009.15 1009.23 1009.69 1009.60 1010.32 1011.10 1012.35 1013.40 1014.33 1014.94 1015.84 1018.03 1019.30 1018.93 1020.90 1022.54 1023.85 1024.37 1024.63 1025.84
1028.70 1028.34 1027.76 1025.93 1023.64 1021.96 1020.79 1019.45 1018.81 1018.50 1018.23 1018.01 1017.53 1016.87 1015.57 1014.10 1013.75 1013.28 1012.47 1011.89 1011.33 1011.00 1010.70 1010.56 1010.55 1010.61 1010.85 1011.21 1011.12 1012.57 1013.51 1014.72 1015.25 1016.60 1017.54 1018.90 1019.80 1020.69 1021.80 1023.67 1024.69 1024.67 1025.36 1026.50
1028.90 1029.03 1028.75 1027.17 1024.83 1022.51 1020.04 1018.80 1018.40 1018.50 1017.97 1017.67 1017.80 1017.23 1016.49 1015.31 1014.34 1014.35 1013.68 1013.07 1012.68 1012.32 1012.07 1011.99 1012.10 1011.51 1012.38 1012.60 1013.27 1014.02 1014.51 1016.08 1016.98 1017.75 1019.18 1020.17 1021.54 1022.03 1023.14 1024.25 1024.95 1025.64 1026.18 1026.96
1029.17 1029.38 1029.21 1028.47 1026.74 1023.14 1020.00 1019.02 1018.79 1018.85 1017.67 1017.83 1017.88 1017.35 1016.79 1015.39 1014.34 1014.79 1014.58 1014.40 1014.05 1013.67 1013.48 1013.42 1013.28 1013.39 1013.64 1014.44 1014.77 1014.82 1016.41 1017.36 1018.18 1019.77 1020.81 1022.05 1022.77 1022.81 1023.62 1024.64 1025.64 1026.40 1026.86 1027.49
1029.40 1029.32 1029.63 1028.95 1027.49 1024.11 1020.24 1018.84 1018.48 1018.78 1018.30 1017.67 1018.05 1017.77 1017.30 1016.00 1015.05 1016.33 1016.09 1015.56 1015.17 1014.98 1014.94 1014.82 1014.96 1014.90 1015.26 1015.92 1016.11 1016.90 1018.24 1019.09 1020.12 1021.31 1022.20 1022.95 1022.96 1023.22 1023.96 1025.09 1026.34 1027.00 1027.46 1028.03
1029.34 1029.20 1028.89 1028.64 1027.03 1023.33 1019.97 1018.90 1018.51 1019.17 1019.36 1018.14 1018.37 1018.60 1018.18 1017.68 1018.00 1017.65 1017.21 1016.81 1016.65 1016.60 1016.57 1016.54 1016.50 1016.83 1017.46 1017.94 1018.07 1018.91 1019.81 1020.78 1021.74 1022.14 1022.74 1023.26 1023.75 1024.15 1024.96 1025.86 1027.11 1027.43 1028.04 1028.80
1028.53 1028.23 1027.75 1027.25 1025.73 1022.71 1019.69 1018.88 1019.34 1019.72 1019.26 1019.36 1019.09 1019.07 1019.29 1018.96 1018.59 1018.19 1018.10 1017.98 1017.90 1017.94 1018.02 1018.18 1018.38 1018.96 1019.45 1019.74 1019.72 1020.54 1021.22 1022.05 1022.71 1023.22 1023.39 1024.28 1025.20 1025.59 1026.08 1026.83 1027.57 1028.23 1028.86 1029.46
1027.44 1025.82 1025.25 1024.56 1022.35 1020.47 1019.66 1019.47 1019.68 1020.00 1020.34 1020.14 1020.13 1019.89 1019.64 1019.53 1019.44 1019.33 1019.22 1019.06 1019.25 1019.30 1019.41 1019.59 1019.72 1020.30 1020.89 1021.09 1021.32 1021.83 1022.85 1023.09 1023.54 1024.23 1025.19 1025.79 1026.04 1026.45 1027.20 1027.90 1028.08 1028.94 1029.62 1030.27
1025.84 1024.57 1024.27 1023.33 1020.72 1020.38 1019.90 1019.78 1020.03 1020.53 1020.95 1020.87 1020.80 1020.77 1020.47 1020.07 1019.86 1019.88 1019.94 1020.04 1020.10 1020.28 1020.53 1020.60 1020.77 1021.57 1022.19 1022.37 1022.51 1022.72 1023.61 1024.35 1024.67 1025.05 1025.84 1026.45 1027.01 1027.85 1028.43 1028.52 1029.02 1029.90 1030.17 1030.47
1025.15 1024.23 1023.44 1022.49 1020.88 1020.45 1020.12 1019.97 1020.40 1020.95 1021.47 1021.54 1021.32 1021.44 1021.41 1021.10 1021.02 1020.87 1021.02 1021.20 1021.27 1021.37 1021.54 1021.72 1022.09 1022.56 1023.20 1023.65 1023.98 1024.28 1024.68 1025.01 1025.40 1026.09 1026.95 1027.78 1028.27 1028.67 1029.34 1029.91 1030.25 1030.04 1030.52 1030.67
1023.50 1022.29 1022.37 1021.02 1020.33 1020.45 1020.61 1020.87 1021.02 1021.62 1022.08 1022.27 1022.44 1022.29 1022.19 1021.95 1021.87 1021.96 1022.19 1022.43 1022.43 1022.42 1022.52 1022.83 1023.20 1023.46 1024.10 1024.35 1024.74 1025.20 1025.52 1025.80 1026.24 1027.19 1027.96 1028.55 1029.09 1029.44 1029.73 1029.98 1030.17 1030.18 1030.57 1030.88
Wind_Speed
4 4 3 6 4 6 7 9 11 13 13 13 17 24 20 12 19 16 15 15 13 12 8 15 21 19 17 16 18 19 18 12 11 11 9 7 6 4 4 4 7 8 8 7
7 1 2 6 6 7 9 12 12 9 10 13 14 26 23 20 22 22 20 18 16 13 13 7 16 19 20 18 20 19 19 17 13 11 9 5 6 4 5 4 8 7 6 7
1 8 10 5 8 9 9 9 10 12 12 12 12 15 5 8 10 17 20 21 17 12 10 4 7 15 20 19 20 20 20 19 15 13 9 8 7 6 4 4 6 5 8 7
6 5 5 8 10 4 6 5 11 14 11 3 6 14 7 12 14 10 15 16 17 15 13 7 9 13 15 17 19 19 18 19 17 17 13 18 11 9 3 5 7 6 8 8
9 8 8 11 5 3 9 11 11 16 15 6 10 4 7 11 10 12 8 10 13 15 15 15 11 16 15 14 14 17 17 17 17 16 16 14 11 7 9 8 11 9 8 9
12 9 3 5 3 8 12 6 19 9 3 3 4 6 9 5 5 16 16 9 10 10 14 20 12 14 16 14 14 17 18 18 17 17 17 18 16 14 11 11 9 7 7 7
11 7 5 5 11 7 7 5 5 7 1 8 3 3 13 12 9 6 12 15 14 12 13 12 10 14 16 16 15 15 19 18 16 18 17 15 16 17 17 14 10 12 8 8
5 12 8 10 4 6 4 2 3 5 3 10 11 8 5 2 4 8 14 16 16 17 12 11 9 9 14 20 18 19 20 20 16 18 17 13 15 11 10 11 11 9 9 9
5 7 7 17 5 2 5 4 5 6 3 4 4 8 6 14 17 22 19 19 18 17 17 15 15 6 12 17 21 23 20 18 20 19 14 15 14 16 14 15 13 10 12 11
3 11 8 7 7 2 4 1 4 3 5 6 6 7 5 15 18 16 21 21 20 18 17 18 14 15 12 16 19 18 18 20 15 18 16 15 15 16 17 15 16 15 14 14
4 5 9 8 4 11 4 4 3 4 5 5 7 6 3 11 14 17 19 21 21 18 19 17 17 16 18 9 11 14 15 19 17 15 16 18 17 17 18 16 15 16 15 15
2 4 8 11 18 11 4 3 5 5 5 7 9 9 4 18 17 17 19 21 21 17 16 14 14 11 5 10 14 16 15 16 16 16 18 17 21 18 18 16 16 12 14 12
3 4 7 12 7 3 5 12 9 11 9 4 5 9 17 24 20 24 22 23 18 15 13 8 7 5 9 10 13 15 14 15 14 18 19 18 19 20 20 18 15 14 14 13
4 3 6 8 15 15 16 21 21 11 5 6 8 21 28 22 26 27 23 20 16 10 8 4 7 8 10 12 14 16 16 14 14 16 16 21 18 19 17 17 15 14 13 12
2 5 4 14 19 19 19 20 18 12 2 3 14 21 21 22 22 16 18 16 11 8 5 4 7 8 10 15 16 17 16 16 15 18 17 17 17 19 19 16 14 13 12 10
3 5 6 14 7 7 15 15 9 7 4 7 15 15 17 22 14 19 19 14 11 8 7 6 11 13 12 15 16 17 17 16 16 19 22 17 15 19 17 15 12 12 13 11
3 4 5 8 10 15 4 4 7 9 6 6 9 16 18 25 16 20 18 13 11 10 10 9 9 12 12 14 19 18 19 16 19 19 19 17 15 17 17 13 12 13 13 11
3 3 2 6 8 4 6 2 4 6 12 8 7 15 18 19 14 14 16 13 13 13 12 11 11 13 14 15 18 18 19 17 17 18 16 16 15 15 14 13 12 12 10 11
6 2 4 1 2 9 5 3 4 2 7 4 9 15 18 19 6 10 18 13 13 13 13 12 12 14 15 15 16 21 18 17 18 15 14 14 12 15 14 13 11 10 10 9
7 9 2 4 1 4 4 5 4 6 5 10 10 14 18 15 12 9 15 13 13 14 12 13 14 16 15 13 16 18 15 16 15 14 12 11 12 13 14 13 11 8 9 10
2 3 9 4 4 10 8 7 2 4 6 14 9 10 14 10 5 7 9 11 11 11 12 12 15 15 13 11 15 16 15 14 12 12 12 12 11 12 12 12 8 9 9 9
8 6 5 2 3 9 2 4 3 2 6 6 8 8 8 7 8 9 9 11 11 11 11 11 12 12 10 10 13 14 14 10 10 11 13 12 10 9 9 11 8 8 9 9
4 8 4 9 8 4 2 3 2 2 3 5 5 7 8 5 6 6 8 9 9 8 8 8 11 12 10 9 10 14 9 10 12 13 12 11 11 10 8 8 8 7 6 6
6 5 5 3 4 2 3 1 2 3 3 5 4 4 6 5 6 7 7 7 7 7 7 7 11 11 9 8 9 11 9 9 11 13 12 9 10 9 7 6 5 5 4 5
7 5 5 7 10 9 8 3 4 2 2 4 5 5 5 3 5 6 7 7 6 6 6 6 8 9 9 8 9 9 8 10 11 11 9 9 7 8 8 7 5 5 4 5
8 8 8 8 7 3 2 4 2 2 0 3 2 4 4 4 5 5 7 5 5 6 6 8 8 10 8 8 9 8 7 9 11 9 7 6 6 6 7 8 8 17 15 16
Wind_Direction
315 53 351 313 311 286 289 290 286 281 281 281 283 286 289 280 283 278 273 276 270 280 299 220 194 190 182 168 172 182 181 177 166 169 159 145 140 123 75 69 99 114 123 122
7 304 305 331 324 326 311 299 294 283 298 292 291 283 282 269 262 266 269 269 269 268 280 256 211 183 184 170 175 180 187 182 180 170 166 127 137 88 91 83 68 66 87 105
241 261 299 306 329 328 300 289 295 301 319 300 309 290 276 292 268 262 256 257 253 252 262 243 203 204 186 175 175 181 185 187 182 158 128 101 89 88 93 94 84 55 76 73
283 291 330 332 312 311 299 299 318 313 328 296 38 290 296 277 285 282 258 251 253 249 257 242 204 201 204 196 172 179 179 183 186 152 151 155 164 160 152 122 105 88 74 86
263 294 305 312 270 356 257 291 296 291 280 316 285 242 288 296 286 272 267 263 251 240 238 243 202 195 194 198 179 175 179 179 182 160 162 169 155 122 123 113 110 100 87 85
256 275 249 229 311 297 282 324 299 285 218 271 225 175 268 281 265 351 340 344 342 339 267 244 202 193 197 191 187 169 175 181 180 159 174 170 148 139 133 133 122 117 108 100
316 317 307 38 331 331 16 357 321 348 345 221 322 261 255 295 360 2 339 340 335 338 340 338 277 192 191 190 183 170 174 180 176 161 174 165 150 147 148 146 139 135 125 114
336 338 353 351 274 273 329 86 237 283 278 286 281 234 237 50 349 346 358 340 329 330 329 326 328 336 218 189 190 179 182 182 159 166 167 147 143 137 137 134 135 125 120 114
331 270 311 303 283 356 276 298 258 276 250 258 250 285 269 8 354 357 342 331 323 318 314 310 306 289 294 210 194 182 185 181 164 158 142 136 133 129 131 125 121 120 117 114
277 297 272 292 315 346 137 284 317 316 303 290 284 275 261 347 336 341 334 328 321 314 309 306 301 298 285 225 194 190 176 148 142 139 135 130 128 122 121 122 124 122 116 115
294 203 293 347 294 303 322 331 351 263 248 285 320 281 62 350 337 334 325 324 315 309 306 303 305 294 276 197 168 128 131 131 130 128 128 124 122 124 120 118 121 120 119 121
347 299 288 281 291 275 208 197 10 277 319 270 266 275 123 354 337 328 319 316 311 306 299 300 297 288 117 126 122 124 124 127 127 126 122 121 116 116 114 113 113 109 113 101
326 318 320 333 355 18 330 314 302 295 265 242 334 284 340 330 328 328 319 320 315 305 305 307 333 352 92 99 104 105 106 111 116 118 119 115 114 115 115 107 106 111 107 102
104 246 194 245 275 307 299 301 304 297 262 313 275 311 315 327 327 325 327 321 320 310 319 355 47 53 77 88 95 93 95 97 107 106 110 115 117 114 107 114 108 107 107 111
45 261 222 255 264 277 277 284 297 314 5 314 312 306 309 321 319 325 323 323 335 340 358 44 69 71 85 93 92 91 90 93 103 100 103 97 102 105 100 103 105 109 112 112
333 277 295 294 258 226 285 285 284 305 288 284 311 310 326 318 320 344 340 346 0 8 31 54 87 88 87 97 95 100 96 102 107 105 98 94 103 100 103 103 115 116 104 103
290 298 338 273 313 312 350 288 334 305 268 296 332 311 316 325 343 356 347 1 13 32 42 53 79 94 94 98 102 100 101 101 97 101 100 103 102 100 102 113 115 106 106 105
246 307 260 277 335 12 256 28 301 298 282 269 292 325 328 322 326 5 2 4 24 36 43 58 76 89 92 96 99 105 97 95 93 90 94 97 104 109 108 107 102 101 103 103
219 275 290 329 232 281 303 342 334 334 288 58 334 338 336 327 323 17 4 13 35 47 52 56 66 79 85 91 97 92 92 93 92 92 95 104 117 110 110 106 105 108 106 106
199 226 154 351 26 245 257 290 295 127 289 19 8 351 343 346 16 9 352 9 28 42 51 62 66 72 70 70 82 87 89 90 90 100 111 115 111 108 108 112 116 108 106 101
215 238 233 243 268 285 261 298 118 44 291 341 357 5 346 7 3 334 356 24 36 43 51 60 63 65 63 72 87 88 93 95 114 112 106 100 98 103 107 101 105 105 104 102
176 165 210 179 222 275 250 337 16 298 321 328 346 355 347 358 13 15 22 30 36 50 53 60 73 67 60 72 90 91 88 97 98 100 88 87 91 94 96 103 102 102 109 109
256 200 201 186 217 244 285 258 48 37 305 328 333 332 328 358 38 36 30 36 45 49 59 68 82 80 69 61 87 97 99 103 97 92 90 94 93 90 92 112 102 98 103 115
253 204 228 25 298 268 359 52 69 48 0 329 337 319 333 6 19 47 46 43 52 56 70 82 89 87 81 69 76 87 93 102 105 101 99 92 94 93 85 80 80 108 100 99
210 145 189 267 281 287 281 216 137 102 54 30 347 2 350 28 46 45 44 37 43 52 49 58 91 96 89 88 85 86 98 109 100 100 103 99 89 87 88 80 85 84 79 116
188 196 192 219 221 157 176 160 129 136 329 51 3 334 352 23 78 78 66 43 53 65 66 71 74 87 84 87 84 78 87 108 115 105 103 106 107 97 100 105 97 87 96 102